View from above orbital plane
|
View from above satellite
|
Ground track
|
The orbit data is extracted from the following two-line orbital elements,
1 20666U 90055D 21104.48987413 -.00000003 00000-0 17955-4 0 9996
2 20666 62.7844 158.6465 0089919 27.5746 333.0075 14.92466079670221
Epoch (UTC): | 14 April 2021 11:45:25 |
Eccentricity: | 0.0089919 |
inclination: | 62.7844° |
perigee height: | 527 km |
apogee height: | 653 km |
right ascension of ascending node: | 158.6465° |
argument of perigee: | 27.5746° |
revolutions per day: | 14.92466079 |
mean anomaly at epoch: | 333.0075° |
orbit number at epoch: | 67022 |
The dashed part of the orbit path shows where the satellite is in the earth's shadow,
|
|